[[{"header":{"parameterUnit":"m.s-1","parameterCategory":1,"la1":30.2991,"la2":30.254,"lo1":-89.0895,"lo2":-89.0444,"dy":0.0017,"dx":0.0017,"nx":28,"ny":28,"refTime":"2024-06-21T03:00:00:Z","depth":0,"parameterNumber":2,"parameterNumberName":"U-component_of_WINDS"},"data":[0,0,0,0,0,0,0,0,0,0,0,0,0,0,0,0,0,0,0,0,0,0,0,0,0,0,0,0,0,0,0,0,0,0,0,0,0,0,0,0,0,0,0,0,0,0,0,0,0,0,0,0,0,0,0,0,0,0,-1.9266,-1.9266,0,-1.9249,-1.9249,-1.9248,-1.9256,-1.9257,-1.9257,-1.9258,-1.9237,-1.9236,-1.9235,0,0,0,0,0,0,0,0,0,0,0,0,0,-1.9304,-1.9304,-1.9266,-1.9266,-1.9266,-1.9249,-1.9249,-1.9248,-1.9256,-1.9257,-1.9257,-1.9258,-1.9238,-1.9236,-1.9235,0,0,0,0,0,0,0,0,0,0,0,0,0,-1.9287,-1.9303,-1.9266,-1.9268,-1.9268,-1.9249,-1.9249,-1.9248,-1.9256,-1.9257,-1.9257,-1.9258,-1.9238,-1.9237,-1.9235,-1.9213,0,0,-1.9231,-1.923,0,0,0,0,0,0,0,0,-1.9288,-1.9286,-1.9268,-1.9268,-1.9268,-1.9255,-1.9255,-1.9236,-1.9256,-1.926,-1.9258,-1.9258,-1.9243,-1.9241,-1.9236,-1.9212,-1.9211,-1.9231,-1.923,-1.9229,-1.9229,0,0,0,0,0,0,0,-1.929,-1.9287,-1.9259,-1.9267,-1.9267,-1.9269,-1.9267,-1.9251,-1.9248,-1.926,-1.9261,-1.9259,-1.9243,-1.9237,-1.9236,-1.9211,-1.9231,-1.9229,-1.9229,-1.9228,-1.9169,-1.9168,0,0,0,0,0,0,-1.9291,-1.9288,-1.926,-1.9259,-1.928,-1.9267,-1.9266,-1.9259,-1.9248,-1.9247,-1.9258,-1.9259,-1.924,-1.9237,-1.9235,-1.9209,-1.9229,-1.9228,-1.9227,-1.9169,-1.9169,-1.9168,0,0,0,0,0,0,-1.9292,-1.9288,-1.926,-1.9273,-1.927,-1.9266,-1.9258,-1.9258,-1.9253,-1.9247,-1.9246,-1.9253,-1.924,-1.9237,-1.9219,-1.9208,-1.9227,-1.9226,-1.917,-1.9169,-1.9168,-1.9157,0,0,0,0,0,0,-1.9293,-1.9289,-1.9281,-1.9273,-1.9269,-1.9245,-1.9258,-1.9257,-1.9251,-1.9252,-1.9242,-1.9241,-1.924,-1.9221,-1.9217,-1.9207,-1.9225,-1.9171,-1.917,-1.9168,-1.9158,-1.9155,-1.9153,0,0,0,0,0,-1.9294,-1.9277,-1.928,-1.9277,-1.9259,-1.9245,-1.9242,-1.9242,-1.925,-1.9241,-1.9238,-1.9241,-1.921,-1.9219,-1.9215,-1.9204,-1.9172,-1.917,-1.9169,-1.9159,-1.9156,-1.9153,0,0,0,0,0,0,-1.9283,-1.9276,-1.9279,-1.926,-1.9253,-1.9246,-1.9236,-1.9239,-1.9229,-1.923,-1.923,-1.9228,-1.9209,-1.9204,-1.9215,-1.9182,-1.9192,-1.919,-1.9186,-1.9183,-1.9181,-1.9182,-1.9224,0,0,0,0,0,-1.9278,-1.9267,-1.9262,-1.9245,-1.9242,-1.9239,-1.9233,-1.9234,-1.9226,-1.9223,-1.9218,-1.9209,-1.9198,-1.919,-1.9179,-1.9157,-1.9156,-1.9148,-1.9145,-1.9143,-1.9141,-1.913,-1.9127,-1.9162,-1.9162,-1.9163,0,0,-1.9268,-1.9263,-1.9256,-1.9243,-1.9238,-1.9226,-1.9237,-1.9224,-1.9215,-1.922,-1.9204,-1.9199,-1.919,-1.9171,-1.9161,-1.9166,-1.9131,-1.9141,-1.914,-1.9139,-1.9128,-1.9125,-1.9122,-1.9161,-1.9162,-1.9162,0,0,-1.9244,-1.9239,-1.9225,-1.922,-1.9212,-1.9211,-1.9207,-1.92,-1.9198,-1.9181,-1.9185,-1.9174,-1.9154,-1.9148,-1.9142,-1.9116,-1.912,-1.9113,-1.91,-1.9089,-1.9087,-1.9084,-1.9076,-1.9073,-1.911,-1.911,-1.911,0,-1.9233,-1.9216,-1.9217,-1.9205,-1.9199,-1.9204,-1.919,-1.9184,-1.9173,-1.9168,-1.9174,-1.9149,-1.9143,-1.9123,-1.9117,-1.9111,-1.9107,-1.9114,-1.9087,-1.9085,-1.9082,-1.9074,-1.9071,-1.911,-1.911,-1.911,-1.911,0,-1.9203,-1.9191,-1.9181,-1.9171,-1.9164,-1.915,-1.9149,-1.9141,-1.9143,-1.9141,-1.9123,-1.9117,-1.9105,-1.91,-1.91,-1.9079,-1.9082,-1.9087,-1.9097,-1.9078,-1.9071,-1.9067,-1.9109,-1.9109,-1.9109,-1.9109,0,0,-1.9171,-1.9163,-1.9159,-1.9155,-1.9147,-1.9138,-1.9124,-1.9114,-1.9108,-1.9099,-1.9088,-1.9071,-1.9076,-1.907,-1.9069,-1.906,-1.9041,-1.9066,-1.9066,-1.9062,-1.9018,-1.9015,-1.9011,-1.9043,-1.9043,-1.9042,-1.9019,0,-1.9147,-1.9125,-1.9126,-1.9105,-1.9095,-1.91,-1.9088,-1.9082,-1.9079,-1.907,-1.9067,-1.9055,-1.9062,-1.9058,-1.9049,-1.9045,-1.9032,-1.9047,-1.9033,-1.9032,-1.9036,-1.9007,-1.9004,-1.8982,-1.9016,-1.9016,-1.9015,0,-1.9117,-1.9109,-1.9088,-1.9082,-1.9078,-1.9067,-1.9058,-1.9049,-1.9041,-1.904,-1.9033,-1.9035,-1.9021,-1.9031,-1.9012,-1.9022,-1.9016,-1.9013,-1.9013,-1.9012,-1.9023,-1.9006,-1.8976,-1.8973,-1.901,-1.9011,-1.9011,0,-1.9097,-1.9081,-1.9066,-1.9063,-1.9055,-1.9048,-1.9044,-1.9038,-1.9032,-1.9023,-1.9019,-1.9008,-1.9003,-1.8995,-1.8993,-1.9,-1.8974,-1.8984,-1.8973,-1.8973,-1.8968,-1.8968,-1.8936,-1.8963,-1.8963,-1.8963,-1.8963,0,-1.9071,-1.9058,-1.9058,-1.9049,-1.9034,-1.9035,-1.902,-1.9017,-1.9011,-1.9001,-1.9004,-1.8995,-1.8993,-1.8984,-1.8982,-1.8967,-1.8964,-1.8963,-1.8963,-1.8963,-1.8964,-1.896,-1.8961,-1.8962,-1.8962,-1.8963,-1.8963,0,-1.9047,-1.9046,-1.903,-1.9025,-1.9024,-1.9013,-1.9008,-1.8999,-1.8998,-1.8985,-1.8982,-1.8979,-1.8967,-1.8965,-1.8951,-1.8951,-1.8933,-1.8934,-1.8936,-1.8936,-1.8926,-1.8927,-1.8891,-1.8886,-1.8915,-1.8915,-1.8915,0,-1.903,-1.9021,-1.9015,-1.9009,-1.9005,-1.8996,-1.899,-1.899,-1.8983,-1.8975,-1.8967,-1.8956,-1.8948,-1.8929,-1.8925,-1.8915,-1.8916,-1.8904,-1.8914,-1.8915,-1.8917,-1.8918,-1.8917,-1.8902,-1.8902,-1.8902,-1.8901,0,-1.9002,-1.9002,-1.8994,-1.8986,-1.8979,-1.8972,-1.8965,-1.896,-1.896,-1.8952,-1.8941,-1.8935,-1.8921,-1.891,-1.89,-1.8896,-1.8898,-1.8898,-1.8895,-1.8896,-1.8897,-1.8897,-1.8931,-1.8899,-1.8899,-1.8899,-1.89,-1.89,-1.8982,-1.8974,-1.8969,-1.8959,-1.8955,-1.8949,-1.8941,-1.8938,-1.8929,-1.8919,-1.8919,-1.8907,-1.8901,-1.8887,-1.8882,-1.8873,-1.8876,-1.8872,-1.8871,-1.887,-1.887,-1.8899,-1.8871,-1.8871,-1.8871,-1.8871,-1.8871,0,-1.8954,-1.8951,-1.8943,-1.8934,-1.8927,-1.8931,-1.8924,-1.8918,-1.8907,-1.8901,-1.8893,-1.8881,-1.887,-1.8866,-1.8856,-1.8849,-1.885,-1.8846,-1.8847,-1.8846,-1.8866,-1.887,-1.8846,-1.8846,-1.8846,-1.8846,-1.8846,-1.8846,-1.8939,-1.8926,-1.8926,-1.891,-1.8907,-1.8896,-1.8892,-1.8886,-1.8882,-1.8868,-1.886,-1.8857,-1.8852,-1.8841,-1.8832,-1.8831,-1.8827,-1.8823,-1.8823,-1.8842,-1.8844,-1.8847,-1.8851,-1.8822,-1.8822,-1.8803,-1.8803,-1.8803]},{"header":{"parameterUnit":"m.s-1","parameterCategory":1,"la1":30.2991,"la2":30.254,"lo1":-89.0895,"lo2":-89.0444,"dy":0.0017,"dx":0.0017,"nx":28,"ny":28,"refTime":"2024-06-21T03:00:00:Z","depth":0,"parameterNumber":3,"parameterNumberName":"V-component_of_WINDS"},"data":[0,0,0,0,0,0,0,0,0,0,0,0,0,0,0,0,0,0,0,0,0,0,0,0,0,0,0,0,0,0,0,0,0,0,0,0,0,0,0,0,0,0,0,0,0,0,0,0,0,0,0,0,0,0,0,0,0,0,-1.0347,-1.0348,0,-1.0378,-1.0378,-1.0379,-1.0359,-1.0359,-1.0358,-1.0357,-1.0388,-1.039,-1.0391,0,0,0,0,0,0,0,0,0,0,0,0,0,-1.0272,-1.0274,-1.0347,-1.0348,-1.0348,-1.0378,-1.0378,-1.0379,-1.036,-1.0359,-1.0357,-1.0356,-1.0388,-1.039,-1.0392,0,0,0,0,0,0,0,0,0,0,0,0,0,-1.0304,-1.0274,-1.0347,-1.0342,-1.0342,-1.0378,-1.0378,-1.0379,-1.036,-1.0358,-1.0357,-1.0356,-1.0387,-1.0389,-1.0392,-1.0434,0,0,-1.04,-1.0401,0,0,0,0,0,0,0,0,-1.0302,-1.0307,-1.0342,-1.0343,-1.0342,-1.0363,-1.0363,-1.0397,-1.036,-1.0353,-1.0357,-1.0355,-1.0381,-1.0384,-1.0393,-1.0436,-1.0437,-1.04,-1.0401,-1.0402,-1.0403,0,0,0,0,0,0,0,-1.03,-1.0305,-1.0359,-1.0343,-1.0343,-1.0338,-1.0341,-1.037,-1.0374,-1.0354,-1.0352,-1.0356,-1.0381,-1.039,-1.0393,-1.0438,-1.04,-1.0402,-1.0403,-1.0404,-1.0518,-1.0519,0,0,0,0,0,0,-1.0298,-1.0304,-1.0358,-1.036,-1.0319,-1.0341,-1.0344,-1.0358,-1.0374,-1.0375,-1.0357,-1.0355,-1.0387,-1.039,-1.0394,-1.0446,-1.0402,-1.0405,-1.0406,-1.0516,-1.0518,-1.052,0,0,0,0,0,0,-1.0297,-1.0303,-1.0357,-1.0332,-1.0338,-1.0343,-1.0359,-1.0359,-1.0369,-1.0377,-1.0377,-1.0366,-1.0386,-1.0391,-1.0425,-1.0447,-1.0406,-1.0408,-1.0515,-1.0517,-1.0519,-1.0549,0,0,0,0,0,0,-1.0295,-1.0303,-1.0319,-1.0332,-1.034,-1.0387,-1.0361,-1.0361,-1.0373,-1.0371,-1.0385,-1.0386,-1.0385,-1.0421,-1.0427,-1.0449,-1.041,-1.0513,-1.0516,-1.0518,-1.0546,-1.0552,-1.0557,0,0,0,0,0,-1.0292,-1.0326,-1.032,-1.0327,-1.036,-1.0389,-1.0393,-1.0391,-1.0375,-1.0392,-1.0397,-1.0386,-1.0443,-1.0425,-1.0431,-1.0455,-1.0511,-1.0515,-1.0518,-1.0544,-1.0551,-1.0557,0,0,0,0,0,0,-1.0316,-1.0328,-1.0321,-1.0361,-1.0374,-1.0385,-1.0406,-1.0398,-1.0416,-1.0413,-1.0409,-1.0413,-1.0449,-1.0455,-1.0434,-1.0497,-1.0475,-1.048,-1.0492,-1.0499,-1.0504,-1.0503,-1.0412,0,0,0,0,0,-1.0325,-1.0348,-1.0357,-1.0391,-1.0398,-1.0401,-1.0413,-1.041,-1.0424,-1.0429,-1.0437,-1.045,-1.0471,-1.0485,-1.0505,-1.0546,-1.055,-1.0566,-1.0571,-1.0576,-1.0581,-1.0604,-1.0611,-1.0531,-1.0531,-1.0531,0,0,-1.0346,-1.0355,-1.037,-1.0396,-1.0406,-1.0429,-1.0406,-1.0431,-1.0448,-1.0433,-1.0466,-1.0472,-1.0486,-1.0525,-1.0542,-1.0531,-1.0603,-1.058,-1.0584,-1.0586,-1.0608,-1.0616,-1.0623,-1.0533,-1.0533,-1.0532,0,0,-1.0396,-1.0404,-1.0434,-1.0445,-1.046,-1.0461,-1.0469,-1.0481,-1.0485,-1.0518,-1.0507,-1.0527,-1.0563,-1.0574,-1.0585,-1.0638,-1.063,-1.0645,-1.0674,-1.0697,-1.0703,-1.0709,-1.0729,-1.0736,-1.0649,-1.0649,-1.0649,0,-1.0419,-1.0454,-1.045,-1.0477,-1.0489,-1.0476,-1.0506,-1.0516,-1.0537,-1.0546,-1.0533,-1.0579,-1.0587,-1.0629,-1.0642,-1.065,-1.0659,-1.0644,-1.0703,-1.0708,-1.0714,-1.0733,-1.074,-1.0651,-1.0651,-1.0651,-1.0651,0,-1.0483,-1.0507,-1.0529,-1.055,-1.0564,-1.0593,-1.0593,-1.0608,-1.0604,-1.0607,-1.0641,-1.0651,-1.0673,-1.0682,-1.0678,-1.0723,-1.0716,-1.0703,-1.0681,-1.0723,-1.0741,-1.0749,-1.0654,-1.0653,-1.0653,-1.0652,0,0,-1.0549,-1.0568,-1.0576,-1.0586,-1.0601,-1.062,-1.0647,-1.0669,-1.0682,-1.0697,-1.072,-1.0751,-1.0739,-1.0751,-1.0748,-1.0768,-1.0811,-1.0753,-1.0753,-1.0764,-1.0862,-1.0873,-1.0882,-1.0805,-1.0806,-1.0807,-1.0862,0,-1.0601,-1.065,-1.0647,-1.0693,-1.0715,-1.0703,-1.0727,-1.0739,-1.0743,-1.0763,-1.0766,-1.0789,-1.0771,-1.0778,-1.0797,-1.0802,-1.0831,-1.0798,-1.0827,-1.0828,-1.0826,-1.0891,-1.0902,-1.0953,-1.0868,-1.087,-1.087,0,-1.0668,-1.0685,-1.0733,-1.0746,-1.0755,-1.0777,-1.0797,-1.0816,-1.0829,-1.083,-1.0844,-1.0837,-1.0865,-1.0841,-1.088,-1.0858,-1.087,-1.0874,-1.0876,-1.088,-1.0853,-1.0898,-1.0969,-1.0978,-1.0881,-1.088,-1.088,0,-1.0713,-1.0748,-1.0782,-1.079,-1.0805,-1.0821,-1.0828,-1.084,-1.0854,-1.0871,-1.0879,-1.0899,-1.0911,-1.0926,-1.0925,-1.0908,-1.0965,-1.0941,-1.0968,-1.0968,-1.0982,-1.0981,-1.1057,-1.0987,-1.0987,-1.0987,-1.0986,0,-1.0772,-1.0802,-1.0802,-1.0823,-1.0857,-1.0853,-1.0886,-1.0892,-1.0903,-1.0924,-1.0914,-1.0935,-1.0932,-1.0953,-1.0952,-1.0985,-1.099,-1.0992,-1.0992,-1.0994,-1.0994,-1.1003,-1.1,-1.0989,-1.0988,-1.0988,-1.0987,0,-1.0829,-1.083,-1.0866,-1.0877,-1.0881,-1.0905,-1.0915,-1.0935,-1.0937,-1.0965,-1.0971,-1.0975,-1.0999,-1.0999,-1.1026,-1.1026,-1.1067,-1.1062,-1.1062,-1.1062,-1.1089,-1.1087,-1.1175,-1.1187,-1.1107,-1.1108,-1.1109,0,-1.0867,-1.089,-1.0904,-1.0918,-1.0926,-1.0948,-1.0962,-1.0959,-1.0974,-1.0991,-1.1009,-1.1032,-1.105,-1.1089,-1.1094,-1.1115,-1.1111,-1.114,-1.1114,-1.1116,-1.1113,-1.1112,-1.1115,-1.1146,-1.1147,-1.1147,-1.1148,0,-1.0935,-1.0934,-1.0954,-1.0975,-1.0991,-1.1007,-1.1022,-1.1033,-1.1032,-1.1049,-1.1073,-1.1088,-1.1115,-1.1139,-1.1159,-1.1166,-1.1157,-1.1156,-1.1164,-1.1167,-1.1167,-1.1168,-1.1078,-1.1154,-1.1154,-1.1153,-1.1153,-1.1153,-1.0984,-1.1005,-1.1018,-1.1041,-1.1051,-1.1065,-1.1085,-1.1089,-1.111,-1.1132,-1.1129,-1.1157,-1.117,-1.1196,-1.1205,-1.1226,-1.1216,-1.1227,-1.123,-1.1233,-1.1236,-1.1162,-1.123,-1.1229,-1.1229,-1.1229,-1.1229,0,-1.1053,-1.1061,-1.1082,-1.1103,-1.1121,-1.111,-1.1126,-1.1142,-1.1166,-1.1179,-1.1197,-1.1225,-1.1248,-1.1255,-1.1276,-1.1292,-1.1289,-1.1298,-1.1298,-1.13,-1.1243,-1.1235,-1.13,-1.13,-1.13,-1.13,-1.13,-1.13,-1.1091,-1.1125,-1.1126,-1.1165,-1.1173,-1.12,-1.121,-1.1223,-1.1233,-1.1265,-1.1284,-1.1288,-1.1299,-1.1321,-1.1341,-1.1342,-1.1351,-1.1363,-1.1363,-1.131,-1.1303,-1.1297,-1.1289,-1.1364,-1.1364,-1.1417,-1.1418,-1.1418]}]]